This demonstration page uses our WeatherBlox Daily Observations layout. Learn more.

Left ArrowRight Arrow

Hourly Observations for July 9, 2018

Temp ( °F °C ) Dew Point ( °F °C ) Humidity (%) Winds ( mph kmh ) Pressure ( in mb ) Visibility ( mi km ) Precip ( " mm )
12:59 am 00:59 Clear 69 20.6 59 15 70 70 NE 9 15 30.26 1025 10 16 0.00 0.00
1:59 am 01:59 Clear 68 20 59 15 73 73 NE 7 11 30.24 1024 10 16 0.00 0.00
2:59 am 02:59 Clear 68 20 60 15.6 76 76 NE 8 13 30.23 1024 10 16 0.00 0.00
3:59 am 03:59 Clear 68 20 60 15.6 76 76 NNE 9 15 30.23 1024 10 16 0.00 0.00
4:59 am 04:59 Clear 68 20 60 15.6 76 76 NNE 8 13 30.23 1024 10 16 0.00 0.00
5:59 am 05:59 Mostly Sunny 68 20 60 15.6 76 76 NE 10 17 30.24 1024 10 16 0.00 0.00
6:59 am 06:59 Mostly Sunny 69 20.6 60 15.6 73 73 NNE 8 13 30.24 1024 10 16 0.00 0.00
7:59 am 07:59 Mostly Sunny 71 21.7 60 15.6 68 68 NNE 10 17 30.26 1025 10 16 0.00 0.00
8:59 am 08:59 Mostly Sunny 73 22.8 59 15 62 62 NNE 10 17 30.26 1025 10 16 0.00 0.00
9:59 am 09:59 Mostly Sunny 73 22.8 59 15 62 62 NE 13 20 30.25 1025 10 16 0.00 0.00
10:59 am 10:59 Partly Cloudy 74 23.3 60 15.6 62 62 NE 8 13 30.25 1024 10 16 0.00 0.00
11:59 am 11:59 Partly Cloudy 76 24.4 59 15 56 56 NE 9 15 30.24 1024 10 16 0.00 0.00
12:59 pm 12:59 Partly Cloudy 76 24.4 61 16.1 60 60 NE 9 15 30.22 1023 10 16 0.00 0.00
1:59 pm 13:59 Partly Cloudy 78 25.6 63 17.2 60 60 ENE 9 15 30.21 1023 10 16 0.00 0.00
2:59 pm 14:59 Partly Cloudy 77 25 62 16.7 60 60 ENE 7 11 30.19 1023 10 16 0.00 0.00
3:59 pm 15:59 Partly Cloudy 77 25 61 16.1 58 58 E 10 17 30.18 1022 10 16 0.00 0.00
4:59 pm 16:59 Partly Cloudy 77 25 60 15.6 56 56 NE 8 13 30.16 1021 10 16 0.00 0.00
5:59 pm 17:59 Partly Cloudy 76 24.4 58 14.4 54 54 ENE 7 11 30.15 1021 10 16 0.00 0.00
6:59 pm 18:59 Partly Cloudy 75 23.9 57 13.9 54 54 E 9 15 30.14 1021 10 16 0.00 0.00
7:59 pm 19:59 Partly Cloudy 72 22.2 56 13.3 57 57 E 6 9 30.14 1021 10 16 0.00 0.00
8:59 pm 20:59 Mostly Clear 66 18.9 57 13.9 73 73 Calm 30.13 1020 10 16 0.00 0.00
9:59 pm 21:59 Mostly Clear 64 17.8 57 13.9 78 78 E 5 7 30.14 1021 10 16 0.00 0.00
10:59 pm 22:59 Clear 64 17.8 57 13.9 78 78 Calm 30.13 1020 10 16 0.00 0.00
11:59 pm 23:59 Clear 63 17.2 58 14.4 84 84 Calm 30.12 1020 10 16 0.00 0.00

Powered by AerisWeather